DSM202 SAWC-SAWH

Flight info

Callsign DSM202
Flight time 1h 13m
Altitude 35000
Route DEVIS2D DEVIS UW52 GAL UW42 GRA DCT DABLI DABLI1Q
Aircraft A320/M-SDE3FGHIRWY/LB1

Departure

Time 2026-04-21 20:55
Airport El Calafate - Commander Armando Tola International Airport (SAWC)

Arrival

Time 2026-04-21 22:08
Airport Ushuaia - Malvinas Argentinas International Airport (SAWH)
Time Latitude Longitude Altitude Speed Heading
2026-04-21 20:35 -50.28345 -72.05421 650 ft 0 kts 302°
2026-04-21 20:48 -50.28344 -72.05422 650 ft 3 kts 302°
2026-04-21 20:48 -50.28294 -72.05444 650 ft 9 kts 18°
2026-04-21 20:49 -50.28243 -72.05416 650 ft 7 kts 19°
2026-04-21 20:49 -50.28199 -72.05400 650 ft 6 kts
2026-04-21 20:49 -50.28163 -72.05405 650 ft 4 kts 355°
2026-04-21 20:49 -50.28137 -72.05408 650 ft 3 kts 355°
2026-04-21 20:50 -50.28083 -72.05415 650 ft 15 kts 355°
2026-04-21 20:50 -50.28028 -72.05363 650 ft 9 kts 74°
2026-04-21 20:50 -50.28021 -72.05273 650 ft 8 kts 86°
2026-04-21 20:50 -50.28017 -72.05190 649 ft 7 kts 84°
2026-04-21 20:51 -50.28012 -72.05117 649 ft 6 kts 83°
2026-04-21 20:51 -50.28005 -72.05037 649 ft 11 kts 82°
2026-04-21 20:51 -50.27991 -72.04879 650 ft 16 kts 83°
2026-04-21 20:51 -50.27981 -72.04710 650 ft 15 kts 85°
2026-04-21 20:52 -50.27973 -72.04550 647 ft 14 kts 85°
2026-04-21 20:52 -50.27966 -72.04402 646 ft 13 kts 85°
2026-04-21 20:52 -50.27957 -72.04256 644 ft 13 kts 84°
2026-04-21 20:52 -50.27949 -72.04117 643 ft 12 kts 84°
2026-04-21 20:53 -50.27941 -72.03987 642 ft 12 kts 84°
2026-04-21 20:53 -50.27933 -72.03859 641 ft 11 kts 84°
2026-04-21 20:53 -50.27932 -72.03747 641 ft 9 kts 100°
2026-04-21 20:53 -50.27952 -72.03665 641 ft 7 kts 102°
2026-04-21 20:54 -50.27936 -72.03588 641 ft 4 kts
2026-04-21 20:54 -50.27931 -72.03592 642 ft 0 kts 344°
2026-04-21 20:54 -50.27921 -72.03623 642 ft 5 kts 276°
2026-04-21 20:54 -50.27924 -72.03689 643 ft 7 kts 266°
2026-04-21 20:55 -50.27938 -72.03931 641 ft 54 kts 265°
2026-04-21 20:55 -50.27996 -72.04862 650 ft 116 kts 264°
2026-04-21 20:55 -50.28090 -72.06368 764 ft 153 kts 264°
2026-04-21 20:55 -50.28172 -72.07976 1556 ft 146 kts 269°
2026-04-21 20:56 -50.28313 -72.09566 2249 ft 148 kts 266°
2026-04-21 20:56 -50.28504 -72.11154 2724 ft 156 kts 270°
2026-04-21 20:56 -50.28570 -72.12922 3049 ft 169 kts 275°
2026-04-21 20:56 -50.28627 -72.14828 3345 ft 188 kts 273°
2026-04-21 20:57 -50.28722 -72.17003 3589 ft 213 kts 272°
2026-04-21 20:57 -50.28841 -72.19451 3955 ft 238 kts 271°
2026-04-21 20:57 -50.28984 -72.22120 4546 ft 251 kts 270°
2026-04-21 20:57 -50.29143 -72.24853 5421 ft 254 kts 268°
2026-04-21 20:58 -50.29310 -72.27627 6243 ft 257 kts 268°
2026-04-21 20:58 -50.29476 -72.30415 7109 ft 258 kts 269°
2026-04-21 20:58 -50.29638 -72.33205 8026 ft 257 kts 270°
2026-04-21 20:58 -50.29799 -72.35989 8932 ft 257 kts 270°
2026-04-21 20:59 -50.30206 -72.38742 9761 ft 267 kts 255°
2026-04-21 20:59 -50.31199 -72.41276 10507 ft 283 kts 238°
2026-04-21 20:59 -50.32764 -72.43300 11231 ft 302 kts 221°
2026-04-21 20:59 -50.34587 -72.45000 11926 ft 308 kts 221°
2026-04-21 21:00 -50.36615 -72.46339 12585 ft 331 kts 200°
2026-04-21 21:00 -50.38992 -72.46299 13206 ft 357 kts 170°
2026-04-21 21:00 -50.41289 -72.44583 13564 ft 380 kts 142°
2026-04-21 21:00 -50.43038 -72.41389 13695 ft 396 kts 115°
2026-04-21 21:01 -50.44214 -72.37418 14007 ft 405 kts 105°
2026-04-21 21:01 -50.45093 -72.33209 14537 ft 408 kts 100°
2026-04-21 21:01 -50.45841 -72.28912 15228 ft 406 kts 98°
2026-04-21 21:01 -50.46571 -72.24640 16002 ft 405 kts 99°
2026-04-21 21:02 -50.47348 -72.20355 16486 ft 415 kts 100°
2026-04-21 21:02 -50.48209 -72.15983 16982 ft 422 kts 102°
2026-04-21 21:02 -50.49138 -72.11575 17524 ft 427 kts 103°
2026-04-21 21:02 -50.50095 -72.07199 17969 ft 432 kts 104°
2026-04-21 21:03 -50.51099 -72.02668 18452 ft 435 kts 104°
2026-04-21 21:03 -50.52078 -71.98219 18959 ft 438 kts 103°
2026-04-21 21:03 -50.53065 -71.93673 19466 ft 440 kts 103°
2026-04-21 21:03 -50.54044 -71.89101 19979 ft 443 kts 103°
2026-04-21 21:04 -50.55023 -71.84490 20472 ft 445 kts 103°
2026-04-21 21:04 -50.56130 -71.79908 20947 ft 452 kts 110°
2026-04-21 21:04 -50.57665 -71.75550 21427 ft 460 kts 121°
2026-04-21 21:04 -50.59632 -71.71547 21893 ft 465 kts 130°
2026-04-21 21:05 -50.61787 -71.67751 22404 ft 466 kts 129°
2026-04-21 21:05 -50.63943 -71.63930 22904 ft 467 kts 129°
2026-04-21 21:05 -50.66105 -71.60074 23293 ft 470 kts 129°
2026-04-21 21:05 -50.68274 -71.56188 23619 ft 473 kts 129°
2026-04-21 21:06 -50.70453 -71.52272 23911 ft 478 kts 129°
2026-04-21 21:06 -50.72654 -71.48312 24209 ft 482 kts 129°
2026-04-21 21:06 -50.74872 -71.44317 24503 ft 486 kts 129°
2026-04-21 21:06 -50.77106 -71.40288 24799 ft 490 kts 129°
2026-04-21 21:07 -50.79359 -71.36226 25100 ft 493 kts 129°
2026-04-21 21:07 -50.81628 -71.32131 25396 ft 497 kts 129°
2026-04-21 21:07 -50.83915 -71.28001 25699 ft 500 kts 129°
2026-04-21 21:07 -50.86219 -71.23835 25983 ft 505 kts 129°
2026-04-21 21:08 -50.88537 -71.19639 26269 ft 508 kts 129°
2026-04-21 21:08 -50.90871 -71.15407 26555 ft 512 kts 129°
2026-04-21 21:08 -50.93216 -71.11142 26839 ft 515 kts 129°
2026-04-21 21:08 -50.95577 -71.06833 27115 ft 519 kts 129°
2026-04-21 21:09 -50.97894 -71.02423 27405 ft 521 kts 123°
2026-04-21 21:09 -50.99848 -70.97592 27698 ft 519 kts 114°
2026-04-21 21:09 -51.01362 -70.92412 27959 ft 516 kts 104°
2026-04-21 21:09 -51.02435 -70.86999 28221 ft 511 kts 96°
2026-04-21 21:10 -51.03069 -70.81478 28488 ft 506 kts 88°
2026-04-21 21:10 -51.03516 -70.75910 28729 ft 509 kts 88°
2026-04-21 21:10 -51.03952 -70.70326 29009 ft 510 kts 88°
2026-04-21 21:10 -51.04382 -70.64730 29290 ft 512 kts 88°
2026-04-21 21:11 -51.04866 -70.59095 29537 ft 520 kts 92°
2026-04-21 21:11 -51.05761 -70.53458 29746 ft 531 kts 101°
2026-04-21 21:11 -51.07152 -70.47955 29977 ft 541 kts 111°
2026-04-21 21:11 -51.09033 -70.42720 30208 ft 549 kts 120°
2026-04-21 21:12 -51.11320 -70.37833 30438 ft 553 kts 125°
2026-04-21 21:12 -51.13675 -70.33009 30790 ft 551 kts 124°
2026-04-21 21:12 -51.15995 -70.28222 31588 ft 535 kts 124°
2026-04-21 21:12 -51.18220 -70.23616 32723 ft 518 kts 123°
2026-04-21 21:13 -51.20397 -70.19085 33294 ft 512 kts 123°
2026-04-21 21:13 -51.22524 -70.14636 33638 ft 510 kts 123°
2026-04-21 21:13 -51.24669 -70.10143 33941 ft 509 kts 123°
2026-04-21 21:13 -51.26812 -70.05661 34186 ft 507 kts 123°
2026-04-21 21:14 -51.28954 -70.01182 34429 ft 507 kts 123°
2026-04-21 21:14 -51.31096 -69.96697 34479 ft 507 kts 123°
2026-04-21 21:14 -51.35373 -69.87741 34487 ft 506 kts 123°
2026-04-21 21:15 -51.39637 -69.78768 34491 ft 506 kts 123°
2026-04-21 21:15 -51.43885 -69.69772 34490 ft 506 kts 123°
2026-04-21 21:16 -51.48125 -69.60749 34513 ft 507 kts 123°
2026-04-21 21:16 -51.52373 -69.51716 34508 ft 507 kts 123°
2026-04-21 21:17 -51.56616 -69.42677 34506 ft 507 kts 124°
2026-04-21 21:17 -51.61543 -69.34528 34480 ft 510 kts 142°
2026-04-21 21:18 -51.67544 -69.28567 34468 ft 505 kts 160°
2026-04-21 21:18 -51.73991 -69.24098 34471 ft 505 kts 161°
2026-04-21 21:19 -51.80389 -69.19608 34477 ft 505 kts 160°
2026-04-21 21:19 -51.86828 -69.15061 34489 ft 504 kts 161°
2026-04-21 21:20 -51.93253 -69.10540 34523 ft 502 kts 161°
2026-04-21 21:20 -51.99657 -69.06038 34519 ft 501 kts 161°
2026-04-21 21:21 -52.06049 -69.01521 34509 ft 500 kts 161°
2026-04-21 21:21 -52.12426 -68.96982 34519 ft 500 kts 161°
2026-04-21 21:22 -52.18796 -68.92436 34509 ft 499 kts 161°
2026-04-21 21:22 -52.25126 -68.87918 34503 ft 499 kts 161°
2026-04-21 21:23 -52.31549 -68.83320 34492 ft 510 kts 161°
2026-04-21 21:23 -52.38136 -68.78595 34498 ft 524 kts 161°
2026-04-21 21:24 -52.44895 -68.73723 34493 ft 535 kts 160°
2026-04-21 21:24 -52.51721 -68.68777 34490 ft 537 kts 160°
2026-04-21 21:25 -52.57398 -68.64643 34506 ft 537 kts 161°
2026-04-21 21:25 -52.64242 -68.59652 34494 ft 537 kts 161°
2026-04-21 21:26 -52.71077 -68.54652 34490 ft 537 kts 161°
2026-04-21 21:26 -52.77907 -68.49644 34491 ft 537 kts 161°
2026-04-21 21:27 -52.84740 -68.44617 34516 ft 538 kts 161°
2026-04-21 21:27 -52.91571 -68.39577 34508 ft 537 kts 161°
2026-04-21 21:28 -52.98395 -68.34522 34497 ft 537 kts 161°
2026-04-21 21:29 -53.08629 -68.26900 34515 ft 537 kts 161°
2026-04-21 21:29 -53.15395 -68.21842 34496 ft 536 kts 161°
2026-04-21 21:30 -53.22102 -68.16817 34482 ft 536 kts 161°
2026-04-21 21:30 -53.25504 -68.14264 34336 ft 534 kts 161°
2026-04-21 21:30 -53.28871 -68.11728 34093 ft 530 kts 161°
2026-04-21 21:30 -53.32232 -68.09191 33851 ft 529 kts 161°
2026-04-21 21:31 -53.35589 -68.06652 33265 ft 529 kts 161°
2026-04-21 21:31 -53.38939 -68.04115 32605 ft 528 kts 161°
2026-04-21 21:31 -53.42287 -68.01574 31973 ft 527 kts 161°
2026-04-21 21:31 -53.45625 -67.99036 31345 ft 525 kts 161°
2026-04-21 21:32 -53.48949 -67.96505 30812 ft 523 kts 161°
2026-04-21 21:32 -53.52232 -67.94000 30435 ft 515 kts 161°
2026-04-21 21:32 -53.55486 -67.91512 29823 ft 508 kts 161°
2026-04-21 21:32 -53.58680 -67.89061 28991 ft 500 kts 160°
2026-04-21 21:33 -53.61771 -67.86688 28245 ft 489 kts 160°
2026-04-21 21:33 -53.64817 -67.84344 27909 ft 477 kts 161°
2026-04-21 21:33 -53.67833 -67.82031 27361 ft 475 kts 161°
2026-04-21 21:33 -53.70828 -67.79736 26853 ft 471 kts 161°
2026-04-21 21:34 -53.73806 -67.77451 26329 ft 468 kts 161°
2026-04-21 21:34 -53.76796 -67.75441 25862 ft 457 kts 170°
2026-04-21 21:34 -53.79852 -67.74360 25400 ft 442 kts 182°
2026-04-21 21:34 -53.82888 -67.73992 24922 ft 435 kts 185°
2026-04-21 21:35 -53.85892 -67.73676 24454 ft 431 kts 185°
2026-04-21 21:35 -53.88880 -67.73358 23952 ft 429 kts 185°
2026-04-21 21:35 -53.91857 -67.73039 23454 ft 427 kts 184°
2026-04-21 21:35 -53.94810 -67.72722 22912 ft 425 kts 184°
2026-04-21 21:36 -53.97750 -67.72407 22433 ft 420 kts 184°
2026-04-21 21:36 -54.00648 -67.72096 21886 ft 412 kts 184°
2026-04-21 21:36 -54.03458 -67.71789 21423 ft 398 kts 184°
2026-04-21 21:36 -54.06174 -67.71490 20959 ft 385 kts 184°
2026-04-21 21:37 -54.08806 -67.71201 20512 ft 373 kts 185°
2026-04-21 21:37 -54.11399 -67.70925 20073 ft 373 kts 185°
2026-04-21 21:37 -54.13991 -67.70659 19623 ft 373 kts 184°
2026-04-21 21:37 -54.16580 -67.70392 19191 ft 373 kts 184°
2026-04-21 21:38 -54.19170 -67.70121 18754 ft 373 kts 184°
2026-04-21 21:38 -54.21766 -67.69845 18311 ft 373 kts 184°
2026-04-21 21:38 -54.24360 -67.69565 17907 ft 374 kts 185°
2026-04-21 21:38 -54.26965 -67.69285 17387 ft 376 kts 185°
2026-04-21 21:39 -54.29578 -67.69006 16939 ft 375 kts 184°
2026-04-21 21:39 -54.32148 -67.68729 16507 ft 374 kts 184°
2026-04-21 21:39 -54.34774 -67.68442 16062 ft 373 kts 183°
2026-04-21 21:39 -54.37325 -67.68162 15630 ft 372 kts 182°
2026-04-21 21:40 -54.39906 -67.67877 15186 ft 370 kts 182°
2026-04-21 21:40 -54.42468 -67.67590 14757 ft 369 kts 182°
2026-04-21 21:40 -54.45026 -67.67309 14397 ft 366 kts 181°
2026-04-21 21:40 -54.47560 -67.67037 13997 ft 364 kts 181°
2026-04-21 21:41 -54.50067 -67.66766 13702 ft 359 kts 181°
2026-04-21 21:41 -54.52568 -67.66494 13250 ft 360 kts 180°
2026-04-21 21:41 -54.55067 -67.66219 12798 ft 359 kts 180°
2026-04-21 21:41 -54.57546 -67.65944 12323 ft 354 kts 180°
2026-04-21 21:42 -54.59990 -67.65668 11585 ft 351 kts 180°
2026-04-21 21:42 -54.62400 -67.65399 11051 ft 342 kts 179°
2026-04-21 21:42 -54.64733 -67.65136 10605 ft 331 kts 179°
2026-04-21 21:42 -54.67001 -67.64878 10162 ft 322 kts 179°
2026-04-21 21:43 -54.69203 -67.64631 9742 ft 312 kts 179°
2026-04-21 21:43 -54.71352 -67.64395 9320 ft 306 kts 179°
2026-04-21 21:43 -54.73445 -67.64167 8887 ft 297 kts 179°
2026-04-21 21:43 -54.75486 -67.63952 8453 ft 291 kts 181°
2026-04-21 21:44 -54.77434 -67.64310 8039 ft 272 kts 204°
2026-04-21 21:44 -54.79097 -67.65536 7961 ft 254 kts 220°
2026-04-21 21:44 -54.80452 -67.67360 7759 ft 246 kts 235°
2026-04-21 21:44 -54.81430 -67.69675 7429 ft 232 kts 251°
2026-04-21 21:45 -54.81943 -67.72228 7121 ft 219 kts 268°
2026-04-21 21:45 -54.82080 -67.74800 6806 ft 210 kts 274°
2026-04-21 21:45 -54.82181 -67.77275 6523 ft 202 kts 274°
2026-04-21 21:45 -54.82283 -67.79648 6409 ft 193 kts 275°
2026-04-21 21:46 -54.82382 -67.81933 6184 ft 181 kts 276°
2026-04-21 21:46 -54.82473 -67.84054 5940 ft 176 kts 276°
2026-04-21 21:46 -54.82561 -67.86105 5644 ft 159 kts 277°
2026-04-21 21:46 -54.82640 -67.87927 5466 ft 149 kts 277°
2026-04-21 21:47 -54.82713 -67.89730 5191 ft 147 kts 277°
2026-04-21 21:47 -54.82786 -67.91446 4979 ft 142 kts 277°
2026-04-21 21:47 -54.82856 -67.93172 4734 ft 144 kts 277°
2026-04-21 21:47 -54.82929 -67.94859 4493 ft 140 kts 274°
2026-04-21 21:48 -54.82998 -67.96546 4290 ft 140 kts 275°
2026-04-21 21:48 -54.83068 -67.98224 4068 ft 139 kts 276°
2026-04-21 21:48 -54.83136 -67.99890 3848 ft 138 kts 276°
2026-04-21 21:48 -54.83206 -68.01563 3611 ft 140 kts 274°
2026-04-21 21:49 -54.83275 -68.03243 3384 ft 140 kts 276°
2026-04-21 21:49 -54.83344 -68.04945 3170 ft 143 kts 273°
2026-04-21 21:49 -54.83415 -68.06651 2938 ft 142 kts 274°
2026-04-21 21:49 -54.83484 -68.08370 2720 ft 143 kts 272°
2026-04-21 21:50 -54.83554 -68.10086 2477 ft 145 kts 269°
2026-04-21 21:50 -54.83626 -68.11834 2223 ft 145 kts 269°
2026-04-21 21:50 -54.83692 -68.13609 1969 ft 145 kts 267°
2026-04-21 21:50 -54.83737 -68.15335 1738 ft 145 kts 266°
2026-04-21 21:51 -54.83839 -68.17069 1493 ft 144 kts 261°
2026-04-21 21:51 -54.83972 -68.18790 1271 ft 144 kts 266°
2026-04-21 21:51 -54.84020 -68.20521 1094 ft 144 kts 270°
2026-04-21 21:51 -54.84043 -68.22248 868 ft 142 kts 269°
2026-04-21 21:52 -54.84132 -68.23932 609 ft 139 kts 266°
2026-04-21 21:52 -54.84193 -68.25574 393 ft 131 kts 273°
2026-04-21 21:52 -54.84245 -68.27186 132 ft 138 kts 268°
2026-04-21 21:52 -54.84295 -68.28823 504 ft 139 kts 268°
2026-04-21 21:53 -54.84457 -68.30504 1193 ft 147 kts 245°
2026-04-21 21:53 -54.85135 -68.31761 1742 ft 147 kts 206°
2026-04-21 21:53 -54.86201 -68.31767 1951 ft 165 kts 170°
2026-04-21 21:53 -54.87396 -68.31419 2168 ft 188 kts 172°
2026-04-21 21:54 -54.88748 -68.30746 2350 ft 218 kts 153°
2026-04-21 21:54 -54.89997 -68.29084 2763 ft 236 kts 124°
2026-04-21 21:54 -54.90604 -68.26481 3496 ft 230 kts 88°
2026-04-21 21:54 -54.90337 -68.23971 4561 ft 196 kts 51°
2026-04-21 21:55 -54.89591 -68.21997 5133 ft 208 kts 52°
2026-04-21 21:55 -54.89103 -68.19410 5438 ft 240 kts 70°
2026-04-21 21:55 -54.88824 -68.16501 5301 ft 246 kts 73°
2026-04-21 21:55 -54.88582 -68.13557 4937 ft 246 kts 73°
2026-04-21 21:56 -54.88306 -68.10641 4634 ft 242 kts 72°
2026-04-21 21:56 -54.87981 -68.07795 4377 ft 238 kts 70°
2026-04-21 21:56 -54.87613 -68.05002 4575 ft 238 kts 69°
2026-04-21 21:56 -54.87208 -68.02198 4826 ft 240 kts 65°
2026-04-21 21:57 -54.86431 -67.99812 4937 ft 224 kts 34°
2026-04-21 21:57 -54.85128 -67.98628 4956 ft 206 kts 359°
2026-04-21 21:57 -54.83822 -67.99233 4968 ft 196 kts 320°
2026-04-21 21:57 -54.83169 -68.01274 4654 ft 205 kts 279°
2026-04-21 21:58 -54.83262 -68.03820 4176 ft 215 kts 270°
2026-04-21 21:58 -54.83400 -68.06440 3568 ft 223 kts 269°
2026-04-21 21:58 -54.83517 -68.09144 3066 ft 222 kts 267°
2026-04-21 21:58 -54.83625 -68.11730 2918 ft 207 kts 270°
2026-04-21 21:59 -54.83723 -68.14181 2502 ft 206 kts 269°
2026-04-21 21:59 -54.83826 -68.16796 1641 ft 226 kts 265°
2026-04-21 21:59 -54.83933 -68.19455 1239 ft 214 kts 266°
2026-04-21 21:59 -54.84033 -68.21946 901 ft 201 kts 268°
2026-04-21 22:00 -54.84125 -68.24271 601 ft 187 kts 266°
2026-04-21 22:00 -54.84211 -68.26457 292 ft 176 kts 269°
2026-04-21 22:00 -54.84298 -68.28626 521 ft 189 kts 268°
2026-04-21 22:00 -54.84361 -68.31055 1153 ft 217 kts 269°
2026-04-21 22:01 -54.84349 -68.33716 1731 ft 221 kts 271°
2026-04-21 22:01 -54.84236 -68.36382 2342 ft 222 kts 277°
2026-04-21 22:01 -54.84160 -68.39055 2962 ft 224 kts 262°
2026-04-21 22:01 -54.84824 -68.41496 3521 ft 235 kts 233°
2026-04-21 22:02 -54.86203 -68.43068 4118 ft 247 kts 200°
2026-04-21 22:02 -54.87927 -68.43256 4711 ft 255 kts 171°
2026-04-21 22:02 -54.89578 -68.42075 4921 ft 260 kts 140°
2026-04-21 22:02 -54.90709 -68.39696 4968 ft 255 kts 109°
2026-04-21 22:03 -54.91087 -68.36754 4949 ft 247 kts 80°
2026-04-21 22:03 -54.90801 -68.33873 4958 ft 242 kts 68°
2026-04-21 22:03 -54.90418 -68.31032 5066 ft 241 kts 69°
2026-04-21 22:03 -54.90032 -68.28165 5318 ft 244 kts 68°
2026-04-21 22:04 -54.89644 -68.25283 5576 ft 246 kts 68°
2026-04-21 22:04 -54.89252 -68.22371 5834 ft 249 kts 68°
2026-04-21 22:04 -54.88858 -68.19435 5933 ft 250 kts 68°
2026-04-21 22:04 -54.88463 -68.16491 5960 ft 249 kts 68°
2026-04-21 22:05 -54.88088 -68.13643 5954 ft 235 kts 68°
2026-04-21 22:05 -54.87690 -68.10984 5954 ft 219 kts 54°
2026-04-21 22:05 -54.86797 -68.09121 5912 ft 189 kts 19°
2026-04-21 22:05 -54.85615 -68.08623 5725 ft 166 kts 348°
2026-04-21 22:06 -54.84569 -68.09217 5366 ft 159 kts 327°
2026-04-21 22:06 -54.83831 -68.10638 4763 ft 170 kts 301°
2026-04-21 22:06 -54.83664 -68.12777 4106 ft 187 kts 270°
2026-04-21 22:06 -54.83762 -68.14985 3494 ft 182 kts 271°
2026-04-21 22:07 -54.83845 -68.17208 2759 ft 186 kts 270°
2026-04-21 22:07 -54.83933 -68.19471 1928 ft 191 kts 266°
2026-04-21 22:07 -54.84023 -68.21739 1318 ft 186 kts 266°
2026-04-21 22:07 -54.84125 -68.24005 644 ft 189 kts 269°
2026-04-21 22:08 -54.84210 -68.26234 288 ft 182 kts 272°
2026-04-21 22:08 -54.84286 -68.28356 104 ft 167 kts 272°
2026-04-21 22:08 -54.84340 -68.29926 105 ft 87 kts 265°
2026-04-21 22:08 -54.84360 -68.30460 106 ft 11 kts 266°
2026-04-21 22:09 -54.84367 -68.30586 107 ft 10 kts 264°
2026-04-21 22:09 -54.84372 -68.30687 108 ft 7 kts 265°
2026-04-21 22:09 -54.84375 -68.30751 76 ft 4 kts 268°
2026-04-21 22:09 -54.84377 -68.30827 116 ft 24 kts 268°
2026-04-21 22:10 -54.84353 -68.30948 111 ft 4 kts 331°
2026-04-21 22:10 -54.84325 -68.30959 111 ft 6 kts 352°
2026-04-21 22:10 -54.84272 -68.30964 110 ft 9 kts 356°
2026-04-21 22:10 -54.84200 -68.30974 110 ft 11 kts 354°
2026-04-21 22:11 -54.84116 -68.30991 110 ft 13 kts 343°
2026-04-21 22:11 -54.84088 -68.31063 109 ft 0 kts 288°
2026-04-21 22:11 -54.84075 -68.31092 109 ft 6 kts 324°
2026-04-21 22:11 -54.84028 -68.31104 110 ft 7 kts 357°
2026-04-21 22:12 -54.84016 -68.31105 110 ft 0 kts 356°